Home   Weather   Aurillac   Past weeks

Flag for France Past Weather in Aurillac, Auvergne, France — Yesterday and Last 2 Weeks

Now
49 °F

Heavy rain. Low clouds.


Feels Like: 46 °F
Forecast: 35 / 47 °F
Wind: 7 mph from Northwest

Location: Aurillac

Current Time: Apr 25, 2017 at 8:35:19 pm

Latest Report: Apr 25, 2017 at 7:00 pm


Visibility: 2 mi

Pressure: 29.70 "Hg (27.54 "Hg at 627m altitude)

Humidity: 99%

Dew Point: 49 °F

Location of AurillacLocation

Past Weather in Aurillac — Graph

°F

Aurillac Temperature Yesterday

Maximum temperature yesterday: 70 °F (at 6:00 pm)
Minimum temperature yesterday: 45 °F (at 7:00 am)
Average temperature yesterday: 58 °F

High & Low Weather Summary for the Past Weeks

 TemperatureHumidityPressure
High71 °F (Apr 22, 5:00 pm)99% (Apr 25, 7:00 pm)30.47 "Hg (Apr 25, 7:00 pm)
Low25 °F (Apr 20, 7:00 am)15% (Apr 21, 6:00 pm)29.70 "Hg (Apr 25, 7:00 pm)
Average50 °F60%30.16 "Hg
* Reported Apr 10 7:00 pm — Apr 25 7:00 pm, Aurillac, Weather by CustomWeather, © 2017

Note: Actual official high and low records may vary slightly from our data, if they occured in-between our weather recording intervals... More about our weather records

Advertising

Aurillac Weather History for the Previous 24 Hours

Scroll right to see more
 ConditionsComfort  
Time TempWeatherWind HumidityBarometerVisibility
7:00 pm
Tue, Apr 25
49 °FHeavy rain. Low clouds.7 mph99%29.70 "Hg2 mi
6:00 pm50 °FLight rain. Low clouds.6 mph97%29.71 "Hg2 mi
5:00 pm50 °FLight rain. Overcast.3 mph97%29.72 "Hg2 mi
4:00 pm50 °FLight rain. Overcast.3 mph95%29.75 "Hg5 mi
3:00 pm49 °FLight rain. Overcast.5 mph95%29.78 "Hg3 mi
2:00 pm49 °FLight rain. Overcast.6 mph93%29.79 "Hg6 mi
1:00 pm49 °FHeavy rain. Overcast.6 mph93%29.83 "Hg4 mi
12:00 pm49 °FOvercast.8 mph91%29.82 "Hg11 mi
11:00 am47 °FLight rain. Overcast.9 mph95%29.85 "Hg6 mi
10:00 am46 °FHeavy rain. Overcast.7 mph94%29.89 "Hg3 mi
9:00 am47 °FLight rain. Overcast.6 mph90%29.88 "Hg9 mi
8:00 am47 °FLight rain. Overcast.No wind80%29.88 "Hg12 mi
7:00 am46 °FOvercast.7 mph79%29.85 "Hg31 mi
6:00 am46 °FOvercast.8 mph81%29.86 "Hg28 mi
5:00 am46 °FCool.7 mph79%29.87 "Hg31 mi
4:00 am48 °FCool.6 mph74%29.88 "Hg34 mi
3:00 am49 °FOvercast.6 mph72%29.88 "Hg37 mi
2:00 am50 °FCool.7 mph74%29.90 "Hg34 mi
1:00 am51 °FCool.6 mph73%29.91 "Hg34 mi
12:00 am52 °FCool.6 mph71%29.91 "Hg37 mi
11:00 pm
Mon, Apr 24
55 °FCool.1 mph68%29.90 "Hg37 mi
10:00 pm56 °FRefreshingly cool.6 mph55%29.89 "Hg37 mi
9:00 pm61 °FRefreshingly cool.3 mph39%29.85 "Hg37 mi
8:00 pm66 °FMild.9 mph33%29.83 "Hg34 mi
Weather by CustomWeather, © 2017

See weather overviewHow to use our weather pages